WP4MXZ San Sebastian PR US current weather conditions

sailwx.info

Wind from 247 at 1 knots gusting 4

Air temperature 31.7° C
Dewpoint 23.5° C

Last reported at 2015-Apr-28 14:33 UTC.
Time now 2015-Apr-28 16:03 UTC

Location: N 18°20' W 067°00'.
View on Google Maps.

See reports from other nearby stations

  
Tides and Currents Weather Stations Pressure Air Temp Water Temp Dewpoint Dewpoint Depression Visibility Wind Speed Wind Dir Waves Ship Positions
date/time (UTC)wind fromknots sea level pressurealtimeterstation pressurevisibilityair tempwater tempwave heightnotes
2015-Apr-28 14:33 247 1 gusting 4 31.7
2015-Apr-28 14:03 045 0 gusting 3 30.0
2015-Apr-28 13:33 321 0 gusting 2 28.9
2015-Apr-28 13:03 288 27.8
2015-Apr-28 12:33 288 26.1
2015-Apr-28 12:03 285 23.9
2015-Apr-28 11:33 264 22.2
2015-Apr-28 11:03 264 21.1
2015-Apr-28 10:33 264 20.0
2015-Apr-28 10:03 264 20.0
2015-Apr-28 09:33 264 20.6
2015-Apr-28 09:03 264 20.6
2015-Apr-28 08:33 264 21.1
2015-Apr-28 08:03 264 21.1
2015-Apr-28 07:33 264 21.1
2015-Apr-28 07:03 264 21.1
2015-Apr-28 06:33 264 21.7
2015-Apr-28 06:03 264 21.7
2015-Apr-28 05:33 264 21.7
2015-Apr-28 05:03 264 22.2
2015-Apr-28 04:33 264 22.8
2015-Apr-28 04:03 264 22.8
2015-Apr-28 03:33 264 23.3
2015-Apr-28 03:03 264 23.3
2015-Apr-28 02:33 264 23.9
2015-Apr-28 02:03 264 23.9
2015-Apr-28 01:33 264 24.4
2015-Apr-28 01:03 264 25.0
2015-Apr-28 00:33 264 25.6
2015-Apr-28 00:03 264 26.7
2015-Apr-27 23:33 264 28.3
2015-Apr-27 23:03 215 0 gusting 4 28.9
2015-Apr-27 22:33 242 0 gusting 4 29.4
2015-Apr-27 22:03 257 1 gusting 6 30.6
2015-Apr-27 21:33 237 4 gusting 7 31.1
2015-Apr-27 21:03 223 4 gusting 9 31.7
2015-Apr-27 20:33 212 5 gusting 12 31.7
2015-Apr-27 20:03 255 0 gusting 9 32.2
2015-Apr-27 19:33 225 4 gusting 9 32.8
2015-Apr-27 19:03 270 2 gusting 7 33.3
2015-Apr-27 18:33 222 4 gusting 7 33.9
2015-Apr-27 18:03 192 2 gusting 7 33.3
2015-Apr-27 17:33 260 6 gusting 9 33.3
2015-Apr-27 17:03 279 1 gusting 10 32.8
2015-Apr-27 16:33 237 0 gusting 9 32.2
2015-Apr-27 16:03 263 3 gusting 6 32.8
2015-Apr-27 15:33 237 31.7
2015-Apr-27 15:03 199 2 gusting 7 31.7
2015-Apr-27 14:33 240 4 gusting 7 31.7
2015-Apr-27 14:03 185 30.0
2015-Apr-27 13:33 170 29.4
2015-Apr-27 13:03 170 28.3
2015-Apr-27 12:33 170 26.1
2015-Apr-27 12:03 170 24.4
2015-Apr-27 11:33 189 22.8
2015-Apr-27 11:03 189 20.6
2015-Apr-27 10:33 189 20.0
2015-Apr-27 10:03 189 19.4
2015-Apr-27 09:33 189 20.0
2015-Apr-27 09:03 189 20.0
2015-Apr-27 08:33 189 20.0
2015-Apr-27 08:03 189 20.6
2015-Apr-27 07:33 189 20.6
2015-Apr-27 07:03 189 21.1
2015-Apr-27 06:33 189 21.1
2015-Apr-27 06:03 189 22.2
2015-Apr-27 05:33 189 22.2
2015-Apr-27 05:03 189 22.2
2015-Apr-27 04:33 189 22.8
2015-Apr-27 04:03 189 23.3
2015-Apr-27 03:33 189 23.3
2015-Apr-27 03:03 189 23.3
2015-Apr-27 02:33 189 23.3
2015-Apr-27 02:03 189 23.9
2015-Apr-27 01:33 189 23.9
2015-Apr-27 01:03 189 24.4
2015-Apr-27 00:33 189 25.0
2015-Apr-27 00:03 189 26.7
2015-Apr-26 23:33 189 27.2
2015-Apr-26 23:03 148 28.3
2015-Apr-26 22:33 127 28.9
2015-Apr-26 22:03 223 4 gusting 6 30.0
2015-Apr-26 21:33 235 2 gusting 8 31.1
2015-Apr-26 21:03 247 1 gusting 4 31.7
2015-Apr-26 20:33 226 3 gusting 7 31.7
2015-Apr-26 20:03 255 5 gusting 6 31.7
2015-Apr-26 19:33 219 5 gusting 8 32.2
2015-Apr-26 19:03 182 3 gusting 10 32.2
2015-Apr-26 18:33 213 4 gusting 8 32.2
2015-Apr-26 18:03 261 5 gusting 10 32.2
2015-Apr-26 17:33 201 1 gusting 10 32.2
2015-Apr-26 17:03 227 3 gusting 8 32.2
2015-Apr-26 16:33 203 4 gusting 8 32.8
2015-Apr-26 16:03 257 5 gusting 7 32.2